Regional Weather Roundup
Issued by NWS

Home | Current Version | Previous Version | Text Only | Print | Product List | Glossary Off
Versions: 1 2 3 4 5 6 7 8 9 10 11 12 13 14 15 16 17 18 19 20 21 22 23 24 25 26 27 28 29 30 31 32 33 34 35 36 37 38 39 40 41 42 43 44 45 46 47 48 49 50

000
ASUS45 KBOU 300307
RWRCO

WEATHER ROUNDUP FOR COLORADO
NATIONAL WEATHER SERVICE DENVER/BOULDER CO
900 PM MDT SUN MAR 29 2015

NOTE: "FAIR" INDICATES FEW OR NO CLOUDS BELOW 12000 FEET WITH NO
SIGNIFICANT WEATHER AND/OR OBSTRUCTIONS TO VISIBILITY.

COZ001>005-013-030-031-300400-
...NORTHWEST COLORADO...

CITY           SKY/WX    TMP DP  RH WIND       PRES   REMARKS
CRAIG          CLEAR     45  20  36 SW3       30.21R
HAYDEN         CLEAR     46  16  29 SW7       30.22R
MEEKER         CLEAR     47  20  34 CALM      30.22R
MOUNT WERNER   NOT AVBL
STEAMBOAT SPGS CLEAR     46  20  35 CALM      30.23R
WALDEN         MOCLDY    41  12  30 SW3       30.27S
$$

COZ006>008-011-300400-
...WEST CENTRAL VALLEYS...

CITY           SKY/WX    TMP DP  RH WIND       PRES   REMARKS
GRAND JUNCTION CLEAR     57  11  16 N9        30.13R
MONTROSE       CLEAR     55  14  19 S8        30.20R
EAGLE          CLEAR     50  14  23 NE8       30.23R
RIFLE          CLEAR     51  14  22 S5        30.17R
DELTA          CLEAR     62   6  10 NE3       30.15R
NUCLA          CLEAR     59   1  10 W5        30.23R
$$

COZ017>023-064>068-300400-
...SOUTHWEST COLORADO...

CITY           SKY/WX    TMP DP  RH WIND       PRES   REMARKS
DURANGO        PTCLDY    56   9  15 W7        30.22R
CORTEZ         CLEAR     49  19  30 CALM      30.21R
PAGOSA SPRINGS PTCLDY    46  23  39 NE5       30.28R
TELLURIDE      NOT AVBL
WOLF CREEK PAS PTCLDY    34  16  47 S6        30.51S WCI  29
$$

COZ009-010-012-014-032>034-037-058>063-300400-
...CENTRAL COLORADO...

CITY           SKY/WX    TMP DP  RH WIND       PRES   REMARKS
ASPEN          PTCLDY    43  18  36 SW10      30.27R
BUENA VISTA    PTCLDY    45  11  24 SE6       30.30R
COPPER MTN     PTCLDY    37  -9  13 W14G21    30.46S
BERTHOUD PASS  FAIR      30  23  74 NW18G28   30.46S WCI  18
COTTONWOOD PAS PTCLDY    48  -4  11 W9        30.37S
GUNNISON       CLEAR     46   1  15 S5        30.30R
KREMMLING      CLEAR     43  12  28 CALM      30.26R
LEADVILLE      PTCLDY    36   1  22 N5        30.36R
SALIDA         PTCLDY    51  23  33 S7        30.35R
SUNLIGHT       CLEAR     39  10  30 CALM      30.45R
WILKERSON PASS PTCLDY    37  -4  17 W9        30.45R
$$

COZ069>075-300400-
...SAN LUIS VALLEY/SANGRE DE CRISTO MOUNTAINS...

CITY           SKY/WX    TMP DP  RH WIND       PRES   REMARKS
ALAMOSA        MOCLDY    55  18  23 S15G24    30.26R
LA VETA PASS   CLOUDY    39  23  52 S6        30.39R
SAGUACHE       CLEAR     48   3  15 N3        30.28R
$$

COZ035-036-038>040-300400-
...NORTHERN COLORADO FRONT RANGE...

CITY           SKY/WX    TMP DP  RH WIND       PRES   REMARKS
DENVER INTL AP PTCLDY    47  30  51 SE9       30.16S
DMNS CITY PARK   N/A     56  23  27 SW5       30.15R
AURORA         NOT AVBL
FRONT RANGE AP PTCLDY    50  30  46 SE9       30.18S
ERIE MUNI ARPT CLEAR     49  26  41 CALM      30.15S
BOULDER MUN AP CLEAR     52  27  37 NW7       30.17R
CENTENNIAL     PTCLDY    51  24  34 S13       30.17R
BROOMFIELD     PTCLDY    54  27  35 NW8       30.18R
FORT COLLINS   PTCLDY    50  27  40 SW5       30.18R
LONGMONT       PTCLDY    47  29  51 NW3       30.19R
$$

COZ041-046-047-076>085-087-088-300400-
...PIKES PEAK/PALMER DIVIDE AND SOUTHERN FOOTHILLS...

CITY           SKY/WX    TMP DP  RH WIND       PRES   REMARKS
COLO. SPRINGS  PTCLDY    48  22  35 S12       30.26R
A. F. ACADEMY  NOT AVBL
ELLICOTT       CLEAR    N/A N/A N/A SE9       30.25R
FALCON         CLEAR     44  21  39 S10       30.28R
FORT CARSON    NOT AVBL
LIMON          CLEAR     42  24  49 SE7       30.22R
MONUMENT HILL  CLEAR     43  21  42 S16G22    30.23S
TRINIDAD       CLOUDY    55  26  32 E6        30.23R
$$

COZ042>045-048>051-090-091-300400-
...NORTHEAST COLORADO...

CITY           SKY/WX    TMP DP  RH WIND       PRES   REMARKS
GREELEY ARPT   PTCLDY    50  21  32 SE6       30.15R
AKRON          PTCLDY    47  22  37 SE10      30.17S
BURLINGTON     CLEAR     42  18  37 SE9       30.21R
WRAY           CLEAR     51  18  27 E3        30.17S
STERLING       PTCLDY    45  25  45 S5        30.15S
HOLYOKE        NOT AVBL
FORT MORGAN    PTCLDY   N/A N/A N/A SE8       30.17S
$$

COZ086-089-092>099-300400-
...SOUTHEAST COLORADO...

CITY           SKY/WX    TMP DP  RH WIND       PRES   REMARKS
PUEBLO         CLEAR     51  24  34 E7        30.20R
LA JUNTA       CLEAR     52  21  29 E7        30.19R
LAMAR          CLEAR     51  22  31 SE12      30.19R
SPRINGFIELD      N/A     47  23  38 SE9       30.23R
$$


USA.gov is the U.S. government's official web portal to all federal, state and local government web resources and services.